GFSSGP_700_rhum_015.txt.gz
RH
70 83 67 70 76 85 75 82 82 80 81 80 71 76 82 83 77 82 98 89 90 86 89 85 82 75 68 68 62 58 54 55 56 54 54 52 38 45 47 51 51 49 50 52 54 53 53 56 62
70 86 76 60 70 85 75 64 62 65 69 66 67 67 74 71 70 78 86 88 82 78 77 76 72 68 66 61 55 53 55 56 55 55 54 45 39 48 54 55 55 56 56 59 60 57 56 56 57
81 92 100 74 65 66 67 67 69 70 70 67 64 79 65 62 72 74 81 78 74 71 70 67 64 64 60 54 51 53 54 53 53 52 48 40 49 56 62 62 60 59 58 58 56 56 59 54 56
61 70 75 88 61 57 67 76 70 84 86 76 64 67 66 66 65 68 72 73 70 63 62 59 60 62 58 53 53 52 51 47 45 45 42 51 58 64 68 66 59 57 57 58 53 51 59 60 62
56 78 89 88 54 61 53 61 82 86 87 80 70 74 62 74 62 62 62 66 67 68 70 66 62 62 58 52 51 47 41 37 40 44 51 60 67 70 66 66 56 59 64 62 60 59 66 70 65
58 59 67 54 44 48 55 52 59 66 65 74 64 64 70 69 61 61 67 68 69 62 65 66 64 60 53 49 42 36 35 39 44 51 59 66 69 71 64 66 59 62 65 61 60 70 69 67 62
59 65 62 44 32 46 56 57 70 66 73 70 60 53 77 68 71 65 71 68 68 68 59 58 58 52 48 37 35 36 40 45 50 57 62 66 64 65 66 64 64 63 67 66 62 67 68 71 70
62 58 52 38 41 37 44 50 56 67 78 74 65 48 60 64 73 53 54 49 57 62 60 53 53 47 38 34 37 40 44 48 53 58 60 60 57 62 64 62 68 54 62 59 52 56 66 69 75
45 54 62 46 38 31 35 51 63 65 60 76 72 63 46 54 63 59 52 47 46 49 52 48 48 43 37 37 39 41 44 48 54 59 56 60 71 64 52 65 54 54 59 54 52 54 52 51 48
39 42 46 39 39 32 33 46 52 64 66 72 68 85 62 48 47 45 33 45 64 42 42 41 45 42 38 39 42 44 47 53 58 57 55 58 55 55 64 65 56 61 52 38 55 59 91 54 48
38 32 38 39 37 35 31 35 37 50 63 65 69 80 66 55 66 42 38 36 34 44 34 38 36 42 40 42 47 50 52 55 58 61 56 51 54 63 57 70 68 64 51 56 73 48 40 42 54
32 32 32 32 35 32 32 33 40 41 52 60 58 72 60 70 50 45 39 41 40 30 30 30 33 33 35 37 40 44 49 51 55 55 55 41 43 48 64 75 60 66 70 50 37 38 33 43 58
28 27 23 29 33 32 32 35 35 40 47 53 55 77 59 56 62 64 44 47 38 37 39 34 35 30 28 30 33 38 39 43 42 43 49 48 53 56 55 70 52 52 48 45 41 53 61 65 56
23 22 20 20 31 30 30 34 33 40 45 50 50 66 66 57 66 66 58 44 32 39 36 34 32 33 31 33 28 29 29 30 46 52 90 52 48 50 47 57 55 54 50 89 95 63 78 82 56
23 21 17 17 17 26 32 34 47 42 46 49 49 46 65 94 73 85 65 42 43 40 41 26 24 25 27 30 31 36 38 52 69 74 74 52 51 46 55 63 66 77 75 95 65 58 66 58 45
21 18 17 16 17 18 26 41 41 35 38 47 54 43 41 82 85 88 82 91 66 39 20 19 24 20 21 23 28 33 32 37 53 44 59 75 51 57 56 57 58 78 82 49 68 42 55 57 28
18 17 16 16 17 19 23 38 34 37 37 44 50 48 46 63 82 86 81 92 69 33 16 18 14 17 16 26 33 40 40 30 34 33 38 67 83 76 62 49 45 42 80 40 42 48 37 16 3
17 16 16 16 16 20 22 29 39 39 40 40 44 51 44 62 70 63 64 82 60 31 17 18 15 13 19 22 22 28 33 30 31 26 35 71 72 58 35 44 40 47 35 31 22 5 4 4 5
16 16 16 15 17 22 22 23 33 40 41 42 43 46 49 44 47 71 58 47 55 27 18 17 17 14 19 20 20 19 29 34 33 48 81 36 45 56 40 37 40 32 13 6 6 8 6 5 6
17 16 16 15 18 22 24 26 28 31 30 39 44 44 46 50 44 44 60 42 21 17 16 18 20 19 18 18 21 22 28 39 44 43 41 39 25 33 24 23 22 14 9 12 11 11 9 6 6
16 17 17 17 20 24 26 29 30 30 22 38 45 40 41 44 49 46 35 30 21 16 16 16 14 16 13 13 16 24 20 28 40 24 15 56 18 20 15 24 13 12 20 25 26 14 12 13 9
16 17 17 16 17 27 35 39 37 32 37 39 45 42 39 41 45 48 47 37 19 14 14 15 15 14 14 16 16 19 19 26 38 34 26 12 14 13 12 10 15 20 27 30 34 33 26 17 16
12 16 16 16 16 22 25 23 38 36 35 34 41 43 38 40 41 37 28 26 33 39 24 11 13 14 16 17 18 16 17 21 28 33 21 13 13 10 11 16 21 27 32 33 39 41 45 49 38
9 12 14 16 16 19 22 24 27 44 36 34 37 38 38 39 40 41 31 33 36 35 36 12 10 12 14 17 14 15 12 19 28 28 13 12 17 13 15 21 29 29 32 43 52 50 57 56 58
8 9 14 19 20 22 16 23 24 28 28 28 40 41 39 46 41 42 42 31 31 28 20 10 7 9 10 15 12 9 8 19 23 15 10 12 13 14 18 25 28 31 45 46 41 52 57 56 58
8 8 12 26 24 20 15 19 20 23 20 24 36 39 38 35 43 39 28 21 22 29 30 24 12 9 9 11 12 7 8 21 20 12 19 20 20 22 31 30 30 38 45 38 42 55 47 51 50
9 8 9 10 14 18 15 14 13 15 21 25 30 30 32 30 40 46 37 26 22 24 26 26 14 13 11 9 9 8 11 17 21 17 21 28 31 35 35 34 36 40 38 36 38 42 42 43 44
10 9 9 9 15 20 15 14 15 15 16 23 26 26 28 26 40 44 40 32 23 19 24 28 25 13 10 8 5 10 14 22 24 22 27 32 35 36 35 34 35 36 37 38 38 38 38 38 39
11 9 8 9 10 16 23 17 14 14 19 22 25 24 26 25 27 41 40 36 22 17 24 23 25 19 13 16 10 10 15 28 29 29 32 34 34 35 33 32 32 33 37 38 38 37 36 35 35
11 11 10 10 12 11 12 13 12 12 12 18 16 24 22 24 24 35 39 36 31 20 22 20 23 23 20 16 21 10 17 28 31 30 32 31 33 33 33 32 31 31 33 35 37 36 34 31 32

GFSSGP_700_rhum_021.txt.gz
RH
59 60 72 80 88 87 82 84 89 81 83 86 85 83 80 82 82 79 84 91 94 89 85 89 86 76 65 57 52 53 53 53 54 49 39 42 45 49 48 54 55 58 58 59 59 55 55 64 71
67 56 66 76 83 84 77 76 78 89 89 86 84 86 80 77 73 78 76 86 89 87 89 86 80 68 63 57 54 55 53 55 53 41 45 52 54 58 60 56 55 58 54 60 55 53 54 61 63
54 61 74 77 80 71 69 74 75 80 78 75 73 86 84 69 81 77 77 84 85 84 85 78 73 68 63 57 55 55 55 55 48 41 54 59 63 63 58 57 58 59 52 59 58 56 54 57 58
54 61 71 73 77 65 65 69 72 72 71 76 68 70 75 79 70 67 74 73 76 76 74 70 68 65 60 54 54 56 56 51 44 51 59 64 70 63 57 58 59 57 54 55 59 58 55 60 58
62 60 63 63 71 68 66 70 70 64 71 75 68 64 70 75 65 66 72 72 68 67 64 62 61 57 52 52 55 55 51 47 46 56 66 69 67 58 55 58 59 59 63 64 61 56 54 53 62
63 63 57 60 68 72 71 67 65 68 75 66 64 56 68 70 65 65 70 71 68 62 61 59 54 49 50 51 51 48 43 45 52 63 69 70 64 58 58 58 61 60 56 60 62 58 58 62 65
66 72 60 69 67 70 65 62 63 56 52 57 59 50 60 72 69 62 64 64 61 62 59 57 51 48 46 45 43 40 42 48 58 64 66 65 62 60 62 58 65 63 63 63 62 58 58 49 37
63 60 56 61 67 69 62 62 69 61 49 49 55 45 44 58 66 61 59 57 57 58 59 59 50 43 37 36 39 40 45 53 58 61 62 60 64 66 56 55 57 61 54 49 45 43 41 37 33
63 54 47 45 50 57 54 58 72 64 51 58 55 47 49 54 62 62 59 59 64 64 60 58 48 40 33 35 38 43 49 53 54 56 59 72 68 66 76 59 55 58 50 48 53 64 67 49 30
51 43 40 40 46 43 51 56 45 46 43 50 54 40 47 44 51 54 49 47 48 50 49 51 46 35 33 36 40 45 49 50 51 56 58 64 67 68 68 66 64 56 46 56 60 59 57 36 33
39 39 41 40 49 48 51 60 60 52 38 42 36 40 39 37 35 35 36 41 43 47 45 41 39 34 34 38 42 44 46 49 51 56 53 58 70 73 85 83 69 72 63 57 73 64 41 36 32
33 35 36 35 40 49 55 56 49 44 40 41 54 40 36 28 26 27 31 36 38 36 41 39 34 32 34 38 40 42 46 47 48 52 48 48 59 59 62 86 63 62 57 56 54 46 45 40 33
24 32 32 30 35 45 55 48 41 37 41 48 38 45 34 36 29 31 32 40 36 34 33 33 32 32 35 38 39 41 44 45 49 49 51 53 51 53 59 70 58 62 53 50 44 61 55 39 40
22 24 28 28 27 46 48 47 44 47 42 50 43 27 21 39 30 30 30 33 33 35 31 30 32 35 36 37 39 41 41 40 43 44 45 46 50 47 48 57 66 64 70 64 78 92 47 53 41
19 20 25 27 25 26 40 59 39 45 39 46 45 27 15 31 34 28 29 28 30 29 31 28 29 32 34 34 40 37 37 37 38 38 42 49 47 40 42 55 57 63 64 80 59 44 48 70 64
20 21 23 25 22 22 38 42 40 48 40 43 48 42 30 16 25 28 28 32 33 32 26 30 33 33 32 33 35 37 37 34 38 40 42 48 63 42 49 55 49 46 43 46 49 41 44 51 55
19 22 24 24 20 20 34 38 43 44 41 42 46 45 39 15 26 33 26 28 33 33 31 29 31 32 32 32 32 36 35 29 29 33 38 53 67 69 69 65 44 45 41 32 14 10 6 6 7
21 22 23 24 22 27 29 40 39 39 39 38 40 42 43 33 14 19 20 26 35 37 35 31 28 28 27 29 29 31 30 31 32 31 34 43 54 70 70 40 40 40 24 11 13 13 13 11 8
20 22 23 24 19 23 29 39 39 37 37 39 40 40 41 42 15 19 18 23 30 40 34 26 25 26 21 18 22 24 24 27 31 32 35 42 59 64 72 44 33 21 13 19 20 19 23 19 16
22 22 23 22 20 18 18 21 31 38 35 25 29 36 39 42 38 16 16 16 17 21 18 19 22 28 22 21 24 26 30 28 32 40 43 46 56 46 41 36 22 13 21 28 29 50 52 49 35
24 23 22 22 20 17 17 21 35 40 40 38 39 36 40 41 41 33 14 10 11 13 15 15 16 18 20 23 27 26 27 24 24 36 44 46 45 42 26 20 14 20 28 36 47 52 52 51 44
23 21 21 21 18 17 19 42 46 38 40 41 37 36 39 43 43 46 44 18 8 9 12 14 16 19 20 23 23 23 23 24 26 33 48 53 29 18 15 14 18 25 35 42 55 58 54 54 37
19 20 21 19 17 17 17 22 21 44 43 40 31 33 38 40 42 38 34 42 18 8 8 12 14 17 20 21 18 16 16 20 26 30 35 37 23 14 11 13 22 31 38 50 52 50 50 50 51
15 18 18 18 18 21 17 19 18 25 33 32 28 29 30 34 36 31 30 42 42 40 25 11 13 14 16 16 15 14 15 18 20 21 24 29 15 11 10 19 28 33 42 45 52 48 46 43 39
22 19 20 20 21 21 17 17 18 18 18 29 28 25 28 30 31 31 31 40 40 37 35 31 21 16 16 16 17 14 14 19 18 18 23 28 12 10 12 27 32 34 42 44 40 42 44 43 40
20 21 19 24 26 19 14 19 17 18 16 19 26 25 27 29 29 31 34 27 28 30 33 34 37 39 37 30 18 15 14 17 18 16 22 20 10 11 15 28 32 36 40 45 43 38 39 41 40
18 20 19 16 15 19 14 13 15 17 16 18 21 25 28 28 30 29 34 35 30 28 31 33 35 35 38 46 42 16 15 16 14 14 20 11 11 12 25 32 36 37 38 39 42 41 39 40 40
19 17 17 17 21 21 14 12 13 15 16 16 15 18 25 25 29 31 31 32 33 29 26 32 37 36 36 46 53 32 17 15 14 15 18 15 15 17 30 35 38 37 36 36 39 39 40 40 40
21 19 18 16 14 17 19 13 10 10 14 15 16 15 18 20 22 27 28 29 29 31 28 27 37 39 38 38 52 57 19 13 12 12 17 18 19 28 34 37 38 37 36 35 36 39 40 41 42
14 17 18 16 14 12 12 12 10 8 9 14 15 14 14 14 16 25 24 28 25 26 25 22 31 41 39 40 44 46 28 12 9 11 18 18 18 31 36 36 36 36 35 34 34 36 37 40 42

GFSSGP_700_rhum_024.txt.gz
RH
70 77 79 86 87 88 85 89 78 82 82 89 90 92 89 85 77 81 82 88 90 98 95 93 90 75 64 52 50 51 53 53 47 41 42 46 48 51 50 56 58 53 53 52 50 57 60 60 61
73 71 77 78 82 81 84 85 90 83 83 78 83 85 83 82 78 78 77 85 86 90 88 83 81 65 56 51 52 52 55 54 43 49 54 54 58 57 53 56 55 55 55 51 53 56 58 62 66
64 70 75 79 73 76 77 82 81 86 85 76 79 79 83 80 75 80 80 82 84 85 82 77 69 60 54 52 53 54 55 54 42 56 60 63 60 56 56 56 52 49 55 54 52 55 58 59 70
54 60 66 70 69 70 77 73 78 70 70 74 73 77 82 74 75 79 78 78 81 81 80 74 64 59 55 52 54 55 56 48 49 59 61 63 60 56 54 55 56 52 53 55 59 58 56 59 72
60 60 64 66 69 72 72 74 75 74 75 73 70 66 70 72 74 77 76 75 77 78 74 69 65 59 54 53 55 56 54 46 57 62 64 63 58 54 58 60 60 62 62 62 59 56 57 61 61
61 61 59 59 65 69 70 72 75 72 75 67 64 64 63 66 69 69 70 72 72 68 65 63 60 57 54 54 56 55 50 50 60 64 66 63 56 56 59 66 64 59 59 62 64 65 66 59 52
59 56 61 63 61 64 66 64 68 66 67 59 63 58 59 63 73 70 67 66 66 61 55 53 49 51 53 55 54 50 48 53 63 66 65 63 60 57 56 62 63 61 60 57 57 48 44 40 42
53 55 57 60 61 61 56 65 66 57 48 54 63 54 50 57 69 67 66 64 60 56 53 47 45 45 48 50 46 45 48 56 62 62 60 62 63 53 55 53 58 59 51 42 42 55 54 55 45
53 55 50 52 53 54 53 59 60 60 54 54 57 55 55 50 56 58 55 55 54 55 57 49 45 43 43 42 41 44 50 56 60 61 71 65 70 67 66 57 58 58 52 46 50 56 47 42 33
40 52 49 50 52 54 52 57 50 49 51 56 50 45 55 47 50 51 48 48 51 53 52 49 44 38 37 36 40 46 51 55 57 60 65 69 72 69 67 64 55 55 47 60 73 52 38 30 26
26 38 46 42 42 48 59 56 59 52 42 45 38 36 36 39 43 54 52 48 48 49 43 39 37 34 34 38 42 47 50 52 56 57 60 60 74 71 81 83 72 66 59 55 48 46 49 47 18
27 37 40 37 34 39 44 59 55 50 46 52 51 35 41 31 26 32 41 43 39 36 36 33 31 32 36 39 43 46 48 51 54 53 57 56 61 65 64 84 66 59 57 56 46 54 56 50 29
25 30 32 33 31 29 42 49 56 52 47 50 47 44 34 30 29 28 38 41 40 36 32 30 29 31 35 37 40 43 46 50 50 48 51 51 56 56 57 66 59 62 57 65 56 84 61 55 45
23 23 24 30 29 28 26 31 47 59 58 49 46 51 32 32 28 27 30 35 35 36 31 31 29 31 32 34 38 41 44 48 48 47 50 51 55 53 51 53 59 67 77 97 66 76 50 46 52
21 22 22 24 29 27 26 34 39 49 58 56 48 47 31 40 31 28 26 27 36 35 31 28 30 30 31 34 38 41 42 42 43 44 49 50 51 51 46 54 55 53 50 51 60 64 46 39 37
19 20 20 24 23 25 24 23 24 39 54 52 49 51 22 25 37 35 29 26 29 35 32 29 30 30 33 34 36 39 40 40 41 41 44 61 60 53 52 58 49 47 45 40 23 21 11 14 27
18 20 21 22 23 24 21 21 24 36 42 46 51 51 39 18 28 32 29 27 27 29 30 28 26 27 29 32 33 36 39 42 41 45 56 53 74 65 75 68 46 40 29 12 11 10 11 10 11
17 18 20 21 22 24 23 22 28 31 37 41 44 49 48 39 15 22 26 26 27 32 28 30 29 31 32 35 34 31 34 40 38 37 44 50 69 82 73 49 37 31 13 15 17 18 19 19 14
15 18 19 21 23 24 24 29 31 33 39 38 40 45 50 42 28 19 27 26 27 33 36 31 28 26 26 24 23 23 25 33 37 39 42 40 47 59 67 44 37 16 18 20 29 49 49 48 25
11 17 19 21 22 23 21 33 33 34 33 38 38 37 43 42 31 13 19 22 20 22 24 27 25 25 20 19 24 25 30 33 36 41 40 38 43 56 57 37 27 16 25 31 52 52 52 49 33
10 16 19 22 22 22 20 18 18 21 24 41 40 38 40 41 41 24 13 15 15 18 19 19 17 16 13 17 22 24 25 25 24 29 40 42 43 53 37 22 14 23 34 44 52 53 48 42 24
13 12 22 24 22 21 21 29 22 30 27 30 36 38 37 40 43 43 32 23 13 15 17 15 14 15 16 21 19 22 25 26 28 29 38 44 45 32 30 16 18 30 39 50 56 49 50 40 33
16 15 21 23 22 20 19 23 20 18 28 28 26 32 33 34 40 42 43 35 36 11 14 14 14 15 17 19 19 22 21 23 28 29 28 37 34 23 17 13 24 33 42 52 53 50 41 43 51
16 23 21 23 22 24 20 20 19 18 20 27 25 30 29 29 36 39 41 42 44 24 10 11 13 14 16 17 18 15 15 16 23 26 26 28 31 18 11 20 28 38 48 51 51 46 46 43 38
21 24 25 24 28 25 20 19 20 19 18 26 27 27 27 26 28 33 37 37 36 46 35 11 10 12 14 13 16 16 14 14 18 23 24 24 30 12 10 26 34 38 45 50 51 46 46 45 43
23 23 22 32 31 22 18 18 18 19 20 24 26 19 21 28 31 29 31 27 27 31 42 44 25 11 13 15 16 18 20 18 17 21 20 21 26 13 11 27 35 38 44 43 41 40 41 41 41
23 24 19 18 20 21 16 14 15 16 18 19 22 18 18 23 28 29 30 31 27 29 34 38 39 35 25 16 17 17 22 22 18 19 18 17 25 15 11 26 32 36 40 41 45 44 43 41 40
22 19 24 24 28 29 21 14 12 14 15 18 19 18 17 16 18 26 29 31 32 26 27 32 36 39 37 39 45 52 58 48 22 21 19 14 21 13 11 25 31 36 39 39 39 42 42 41 41
22 22 19 20 20 28 28 17 13 12 14 15 17 17 16 16 16 20 24 29 31 34 31 25 30 36 41 43 41 47 55 62 42 21 22 14 19 12 14 28 35 38 39 38 36 37 40 41 42
18 18 21 19 19 19 17 15 11 9 9 14 15 17 16 16 16 15 16 17 28 31 34 34 28 32 35 39 40 42 50 59 60 25 19 14 18 14 15 30 36 39 40 38 36 35 36 38 41

GFSSGP_700_rhum_030.txt.gz
RH
80 83 88 90 98 91 84 84 78 83 87 96 99 98 95 82 77 86 90 98 98 88 89 95 75 70 62 54 46 44 37 36 36 50 48 45 45 46 50 50 54 55 57 65 69 70 71 84 84
75 80 82 83 98 80 72 79 79 88 84 85 84 88 88 80 79 79 88 99 99 88 82 74 62 59 54 50 48 41 38 37 38 40 42 46 44 48 50 54 54 61 64 64 65 69 76 82 90
66 71 78 96 78 67 68 79 84 79 77 99 86 93 88 81 82 84 89 91 97 93 88 74 58 54 50 50 48 38 43 47 51 57 58 56 50 52 50 53 58 60 59 64 62 67 82 90 92
62 62 68 85 59 67 67 75 88 77 75 74 85 84 79 82 80 85 83 84 95 89 87 63 54 50 49 50 47 38 49 58 66 67 62 57 57 57 57 55 64 63 60 56 61 66 66 67 68
62 59 85 60 54 66 71 78 91 88 92 82 83 75 79 81 78 82 80 88 90 84 72 57 49 50 50 50 46 41 55 63 72 69 60 59 64 63 62 65 68 66 62 66 69 67 59 52 53
73 62 60 41 50 66 74 84 84 86 87 72 70 70 75 75 76 78 79 82 87 80 64 52 49 50 50 51 46 46 58 69 70 66 58 60 63 65 65 64 64 69 68 66 56 49 44 44 46
67 73 55 49 55 55 73 80 79 83 80 67 62 65 66 72 75 73 74 77 86 76 57 51 48 50 51 51 48 49 62 69 70 65 64 62 58 59 59 60 58 53 45 50 61 56 52 40 41
54 79 59 57 53 56 72 77 79 83 73 60 65 62 56 66 72 71 70 73 71 64 56 50 48 50 52 51 49 50 63 68 66 66 67 61 57 56 52 54 57 52 47 53 52 46 38 35 34
28 72 49 48 50 57 71 74 59 50 54 61 61 59 55 58 64 70 70 73 70 60 56 49 47 49 49 49 48 51 61 63 63 65 63 63 71 60 58 55 54 53 60 67 63 53 48 33 26
27 63 47 49 48 49 67 72 54 71 50 54 56 54 57 54 57 60 62 64 61 51 48 48 46 48 48 49 46 51 58 60 61 66 67 65 67 71 70 68 68 58 55 51 52 54 58 68 96
46 59 51 46 49 54 66 72 62 61 70 61 48 51 55 53 52 58 58 55 50 47 42 42 42 44 45 44 46 51 56 56 58 60 61 70 65 79 82 69 61 57 54 52 58 91 100 69 89
57 52 55 49 45 49 59 66 70 60 58 58 44 52 52 55 47 50 53 47 47 42 36 38 39 38 41 42 46 50 53 54 55 54 54 56 62 68 73 66 56 53 74 66 58 97 72 56 60
39 53 47 50 43 40 44 60 63 71 54 53 32 46 52 58 52 51 55 52 50 46 36 34 34 34 37 40 45 48 50 52 52 51 50 47 56 54 65 62 60 68 69 85 74 81 79 56 99
42 50 48 39 31 32 33 50 59 61 54 47 50 29 37 54 52 52 51 50 50 49 41 34 32 33 36 40 43 46 48 48 50 50 50 49 50 51 54 58 60 58 50 49 51 58 68 30 49
43 28 25 25 26 28 31 40 48 54 37 52 49 48 31 39 52 45 49 49 49 48 43 35 32 32 36 39 42 43 44 45 47 49 50 50 50 50 50 68 63 51 47 51 29 43 38 98 30
27 25 25 28 25 25 27 27 33 46 31 44 53 50 32 25 34 41 42 47 47 48 38 35 33 33 36 38 39 39 40 42 45 46 47 49 51 46 47 74 65 48 38 38 35 33 35 44 16
24 24 27 26 26 26 29 27 31 47 33 41 46 51 50 26 26 32 33 35 41 43 39 34 32 32 34 36 36 36 37 40 41 41 43 43 49 43 46 69 54 40 15 30 29 24 28 22 30
22 23 24 26 26 26 28 29 30 49 56 65 35 48 54 44 24 26 29 31 36 39 39 36 33 31 32 33 34 34 35 36 36 37 40 45 55 52 67 65 59 32 17 22 40 50 43 37 18
20 21 23 23 25 24 26 25 28 36 54 59 70 38 48 48 40 24 32 30 29 33 34 30 30 30 31 30 29 30 31 32 32 32 38 42 44 57 75 67 60 21 21 52 53 46 43 41 18
21 20 20 22 22 24 26 26 27 33 52 57 60 37 39 51 50 26 26 30 25 26 29 27 25 27 28 29 28 28 29 30 31 32 30 33 36 41 52 57 45 25 24 54 57 59 45 26 21
20 21 20 20 21 22 22 22 24 27 46 51 62 61 54 41 47 48 21 21 23 22 23 23 23 24 25 27 28 26 28 28 29 30 31 31 34 34 44 46 44 26 35 52 51 42 29 23 28
17 18 18 18 19 20 21 20 21 23 34 43 49 54 45 41 45 49 49 19 17 16 23 22 22 23 24 23 21 21 22 23 26 29 33 37 41 37 39 40 32 23 38 48 53 43 42 46 48
16 13 16 17 17 19 19 20 19 22 25 29 36 46 59 46 41 43 39 26 15 16 19 20 20 21 22 19 16 18 20 23 29 31 30 34 39 40 34 30 17 29 46 45 45 49 50 48 48
20 16 18 19 15 15 18 19 18 20 25 26 31 37 34 32 30 38 41 38 20 17 17 20 19 18 18 16 13 14 18 21 23 26 26 23 28 36 34 22 13 32 48 47 40 39 38 38 36
22 21 17 16 14 13 14 17 18 18 20 25 26 29 21 22 27 32 39 41 36 25 17 15 15 16 17 15 14 12 14 18 22 26 25 25 25 27 29 19 12 30 47 47 43 41 40 40 39
21 19 13 16 10 9 12 13 14 17 20 22 25 23 34 37 26 28 33 37 36 38 35 22 15 16 18 15 11 11 13 17 18 21 19 20 21 24 30 17 11 28 40 46 43 44 42 40 40
23 20 13 11 12 11 8 10 13 17 18 20 21 22 24 34 23 27 26 32 37 31 34 42 34 13 15 16 14 10 15 17 16 15 16 16 20 22 26 13 10 27 40 45 44 47 43 39 39
18 18 16 13 17 16 8 9 10 12 17 19 20 22 24 28 25 21 20 23 30 33 34 36 40 43 24 11 12 13 12 14 13 16 17 16 15 20 21 13 10 29 44 47 46 46 41 38 39
19 19 17 14 12 11 11 8 9 12 16 17 19 21 23 25 24 19 18 20 24 29 31 32 37 41 44 40 28 12 10 12 13 15 15 16 16 17 17 18 10 29 38 43 46 45 42 40 38
18 18 18 15 17 14 12 9 12 11 12 18 16 20 22 26 20 20 20 17 17 18 29 30 26 35 36 41 46 41 30 18 14 16 17 19 18 16 16 18 12 27 38 41 43 43 42 40 37

GFSSGP_700_rhum_033.txt.gz
RH
78 82 88 91 96 91 81 72 68 71 80 79 84 87 82 84 89 85 96 80 86 78 88 82 77 60 49 43 37 32 29 46 55 52 48 44 45 50 54 56 55 57 64 70 69 68 79 78 48
74 79 85 88 96 83 77 74 83 78 86 87 87 90 89 76 80 82 95 91 89 77 72 70 62 53 46 41 37 31 30 44 46 42 42 43 48 51 55 56 60 64 62 64 68 72 82 88 83
64 72 96 97 90 79 73 72 70 79 83 91 93 98 84 76 89 85 91 88 88 74 71 69 59 50 45 43 35 32 36 40 42 47 47 48 51 50 57 59 59 60 62 62 70 82 82 85 80
56 67 78 78 69 61 67 73 74 78 79 86 96 81 75 80 81 85 91 90 84 72 69 61 50 48 47 39 39 47 53 58 60 58 54 53 55 54 54 64 63 60 58 63 66 64 62 59 57
58 91 97 80 52 56 63 68 70 77 74 79 91 77 76 84 92 89 90 89 86 71 56 52 50 49 47 37 43 55 61 67 65 58 56 58 60 61 64 68 64 62 66 67 60 47 36 37 41
94 92 73 58 47 53 60 60 68 72 74 88 94 78 80 79 84 89 90 91 89 68 55 49 48 48 44 38 47 58 67 68 63 55 56 60 64 64 62 63 64 63 57 46 51 46 40 33 34
72 86 70 41 38 48 58 58 69 60 72 81 94 90 76 77 84 87 94 92 88 77 51 46 46 44 40 42 49 60 67 68 62 58 57 55 55 59 59 56 52 46 46 56 40 38 33 29 33
88 82 49 45 54 43 48 53 55 59 78 87 85 59 59 72 80 86 98 99 88 99 51 46 45 41 40 44 50 61 67 66 61 61 60 57 57 52 50 54 54 52 57 54 46 45 40 20 19
72 80 54 34 46 41 46 46 58 68 75 82 86 56 55 67 78 91 86 88 94 99 52 48 45 38 40 45 50 61 65 62 62 62 59 64 86 72 53 48 50 55 52 44 42 54 49 61 52
71 75 57 37 34 47 45 43 52 59 67 79 84 70 60 62 76 94 77 72 79 99 95 85 47 38 42 45 49 59 61 61 68 74 55 77 66 80 75 64 56 52 53 49 67 89 63 98 90
59 67 54 38 38 44 42 47 46 51 59 71 79 48 53 56 70 71 70 68 69 98 96 96 70 39 43 58 49 55 61 66 63 69 64 74 79 65 100 57 53 50 60 90 94 84 69 74 90
54 51 47 38 38 40 41 44 47 46 44 66 54 46 50 53 70 69 64 68 82 95 94 94 79 37 43 62 48 66 94 92 87 57 54 61 83 56 93 55 87 65 76 80 98 85 64 90 92
51 47 45 43 39 35 41 45 55 52 49 58 34 37 50 56 78 100 99 96 100 95 94 92 54 36 37 41 49 96 93 74 97 55 48 48 57 50 77 72 98 89 72 56 74 62 62 43 68
44 46 42 40 37 33 32 40 46 52 57 66 30 31 39 57 92 97 96 97 98 94 93 91 34 34 36 40 43 46 49 81 61 69 45 42 48 53 97 81 91 73 63 99 50 50 69 96 45
44 37 41 40 32 27 28 34 42 48 63 69 53 22 27 44 92 93 93 94 95 92 92 82 30 32 34 38 42 45 45 46 46 50 47 46 46 46 81 84 86 90 60 53 30 73 82 73 97
41 38 30 28 27 26 27 26 33 42 58 68 74 61 25 30 74 71 73 90 92 91 59 32 31 31 34 37 40 42 42 43 44 46 46 46 45 47 52 74 73 98 50 40 99 39 56 99 75
25 27 28 24 25 24 25 24 29 38 48 57 71 76 70 31 59 34 49 48 87 54 44 37 31 30 32 36 38 40 39 40 42 45 45 43 45 47 44 77 98 51 30 63 45 83 92 76 90
21 21 22 24 24 23 23 23 31 32 42 50 66 73 76 66 27 32 45 35 68 46 38 35 32 30 32 34 36 36 35 36 39 41 42 37 43 41 41 68 48 46 56 69 76 56 46 58 38
22 18 19 20 22 23 23 24 25 29 38 43 59 67 74 75 71 72 37 30 33 38 36 29 28 27 30 31 32 32 31 32 34 36 36 36 41 44 44 63 56 31 45 48 55 53 51 85 18
25 19 17 19 20 24 23 23 23 25 31 39 50 62 68 74 80 70 24 42 28 28 31 27 26 26 27 28 30 31 31 31 33 33 31 33 37 38 50 66 65 37 89 53 60 57 89 23 21
18 18 17 16 19 21 22 22 22 23 26 38 44 57 62 69 75 49 38 20 29 25 24 26 23 25 25 26 28 29 30 30 29 29 29 26 29 32 34 50 51 28 26 59 51 36 28 64 28
12 14 17 16 17 18 20 20 20 22 22 35 40 50 56 65 72 78 45 39 20 20 21 24 24 22 24 25 25 26 25 24 24 27 28 27 28 30 30 43 44 29 33 50 47 36 42 43 47
13 12 13 16 17 17 17 19 18 19 20 24 34 42 49 56 67 74 44 34 29 19 17 21 22 22 21 22 22 21 22 22 23 25 28 31 34 37 35 31 37 26 35 46 56 50 49 49 48
14 13 12 12 13 15 16 16 17 16 18 20 26 32 39 47 58 70 71 41 35 21 18 18 22 21 21 18 19 15 17 19 22 23 24 26 28 31 29 28 23 27 35 43 48 46 40 40 40
16 14 13 12 11 13 13 14 16 15 16 18 21 25 30 39 50 66 76 62 33 25 14 15 19 19 17 17 17 13 15 17 20 21 25 24 21 19 25 26 25 21 31 46 41 40 40 39 39
17 13 11 16 11 9 10 12 13 15 16 16 20 22 26 33 47 58 70 72 38 30 18 12 14 16 16 16 15 14 12 14 17 18 20 19 18 17 21 22 15 15 23 48 41 42 41 40 39
17 14 11 9 8 8 7 8 9 11 13 17 19 21 24 29 40 51 64 70 37 35 32 28 14 13 15 15 16 15 13 12 11 14 15 14 14 17 18 19 14 11 14 42 44 41 41 40 39
16 15 13 11 13 12 8 8 9 11 14 14 18 21 21 23 35 46 55 60 34 34 31 23 32 28 10 11 13 15 13 8 10 14 14 12 12 14 16 14 16 10 11 33 42 42 41 41 40
16 16 14 11 9 10 12 9 7 9 13 15 17 19 20 20 28 40 52 49 30 37 36 30 26 26 35 27 13 10 10 12 11 14 14 11 12 11 14 11 16 10 8 29 40 42 41 40 40
16 15 17 14 13 9 9 10 10 9 11 14 17 18 19 21 25 38 48 54 62 39 32 32 30 28 29 37 40 30 14 10 10 11 12 12 14 13 11 10 12 16 8 16 37 41 43 39 41

GFSSGP_700_rhum_036.txt.gz
RH
79 83 88 94 99 91 93 83 86 80 85 81 78 79 84 83 76 76 64 67 75 68 61 61 57 49 44 33 29 23 33 42 48 48 45 45 49 51 53 51 54 59 64 62 64 76 77 70 41
79 90 93 88 89 96 86 76 78 80 77 88 94 97 82 65 69 64 60 62 72 71 74 66 63 48 37 34 27 28 45 49 46 43 42 46 52 52 53 53 56 57 59 63 71 79 85 82 73
76 91 99 99 91 84 71 74 75 78 82 86 83 96 68 70 70 62 66 71 75 75 78 62 50 42 40 30 27 31 41 39 38 39 42 48 52 54 53 53 56 57 57 65 67 66 70 78 60
74 94 80 90 86 69 74 80 67 81 84 78 81 72 72 83 76 70 73 73 70 67 68 53 45 40 35 28 28 34 42 50 48 48 49 52 50 52 55 54 52 51 54 57 57 47 41 43 45
85 96 95 79 88 69 64 68 68 68 76 95 91 71 78 83 86 80 75 65 63 58 55 50 44 41 30 38 47 55 59 58 53 54 56 56 57 61 60 57 57 58 54 44 37 33 29 31 43
99 84 91 79 71 58 56 57 67 73 75 89 79 74 86 88 88 84 79 70 62 56 51 47 45 38 34 47 54 63 63 58 54 57 59 60 59 56 55 56 48 38 45 40 38 32 27 27 36
97 72 81 71 50 54 56 59 66 59 70 90 70 72 93 99 92 88 85 74 65 55 48 47 42 36 38 49 59 64 61 55 55 55 53 55 59 56 50 44 36 42 38 40 46 40 26 15 31
95 97 93 60 42 42 49 52 60 67 78 87 90 63 71 90 99 90 87 84 87 55 48 45 40 35 41 50 62 66 62 58 55 55 54 55 49 53 53 47 48 55 47 45 49 36 58 56 43
92 91 67 56 46 41 41 48 63 70 73 80 91 63 63 92 94 99 95 98 100 64 47 44 38 37 42 51 61 65 61 58 63 61 69 68 56 56 53 49 47 47 44 52 61 58 59 86 79
76 74 57 49 63 48 44 46 54 59 66 86 51 55 65 76 92 91 98 84 99 73 47 43 37 36 42 50 60 61 58 54 66 55 66 68 58 66 59 63 58 48 51 67 84 60 84 54 98
65 61 48 43 50 46 43 40 48 51 60 79 41 47 61 69 81 96 88 83 99 93 49 42 36 36 41 48 57 58 55 61 65 66 77 84 77 96 79 57 57 58 85 80 60 97 56 58 82
53 60 50 44 40 39 58 40 38 46 58 67 34 46 48 61 59 70 75 81 99 93 85 60 32 35 41 47 52 55 53 58 63 59 73 77 99 69 61 56 54 91 68 85 69 50 68 82 80
47 54 52 51 35 37 39 52 46 45 63 76 32 44 53 56 54 71 75 74 85 98 100 87 33 38 39 48 51 53 91 74 84 56 50 93 51 53 95 71 78 69 75 94 43 43 95 55 67
44 45 53 49 36 31 31 51 38 43 53 64 41 31 57 92 85 76 65 74 89 99 90 86 35 36 35 41 48 99 70 91 97 84 48 48 79 84 63 83 90 77 86 84 46 44 60 98 45
39 41 40 41 34 30 27 30 39 57 57 64 39 43 35 85 97 86 69 77 72 79 86 75 29 32 34 37 42 42 48 60 57 86 48 54 51 48 98 65 54 66 35 44 36 81 94 88 61
38 40 36 35 35 30 25 24 34 50 57 70 79 74 45 72 91 89 98 96 78 89 87 52 32 28 32 36 40 42 42 42 43 44 41 44 43 46 47 67 57 79 79 35 97 32 76 73 87
35 34 35 33 32 27 24 23 30 44 57 65 73 79 82 62 88 89 88 94 92 95 68 36 27 26 31 34 37 39 39 36 38 40 36 40 38 39 42 73 98 58 33 19 47 54 98 81 89
31 27 29 29 24 25 23 22 27 35 49 60 67 74 79 76 72 82 88 91 92 80 46 30 25 25 29 33 35 36 35 36 35 37 36 35 35 35 38 56 50 49 31 50 63 60 42 55 77
28 21 21 23 23 22 22 21 31 34 51 53 61 68 74 76 78 80 66 80 87 63 30 26 25 25 27 30 32 33 33 33 34 35 36 30 30 33 33 51 90 40 24 40 55 59 94 49 31
32 24 18 17 19 23 22 20 22 29 36 47 55 62 70 74 77 79 53 64 43 27 26 24 23 23 25 29 30 31 32 30 31 33 30 27 27 30 38 55 58 47 60 55 50 51 41 23 34
31 28 21 16 16 20 24 22 22 24 28 35 40 54 63 70 74 77 59 34 36 25 20 25 23 22 23 27 28 28 29 30 26 25 23 22 23 26 30 51 59 46 33 58 50 29 37 32 35
21 25 21 18 16 17 23 21 23 22 22 30 35 48 56 64 71 74 72 56 29 22 20 19 24 22 22 24 25 24 25 26 23 23 23 22 23 23 25 39 45 40 29 42 47 36 46 44 44
14 15 18 17 16 15 15 17 17 21 22 24 32 37 48 55 66 72 72 46 40 24 16 17 21 22 21 24 22 23 24 24 23 21 21 20 22 24 26 26 30 32 28 44 50 46 45 47 47
12 12 11 12 14 16 15 16 18 18 20 22 24 32 43 51 58 66 70 65 53 47 17 17 17 22 20 21 22 21 21 20 18 18 19 21 23 31 34 26 22 27 28 36 49 42 45 43 42
13 12 12 13 13 14 14 15 16 15 18 19 20 26 36 44 51 59 67 68 44 39 20 15 14 18 19 18 20 17 15 16 16 16 18 19 21 22 19 22 22 26 27 31 43 43 41 41 40
13 12 12 18 14 10 10 12 14 14 14 15 18 22 28 37 43 52 61 67 48 35 24 10 10 12 18 17 15 12 11 15 16 16 16 16 17 15 13 21 18 17 21 21 44 42 41 40 40
14 13 11 10 10 9 8 9 10 12 13 15 15 18 24 29 36 44 55 63 38 39 33 16 8 10 13 14 13 15 12 12 11 13 15 15 16 14 13 13 17 15 13 16 39 41 41 41 40
13 14 13 11 16 16 9 9 10 9 11 13 15 16 20 23 29 39 46 56 36 27 33 27 16 9 10 12 14 14 14 13 11 10 11 12 12 13 12 9 13 16 12 10 16 44 41 41 41
14 14 14 12 10 12 13 8 8 8 9 11 13 16 18 22 27 36 45 51 27 25 35 30 29 19 10 8 9 11 12 14 12 8 9 10 12 11 14 10 9 12 14 10 8 28 43 40 39
14 14 15 14 14 10 10 10 10 10 9 11 14 14 20 21 27 32 40 47 49 28 30 32 26 19 13 9 5 6 8 9 12 10 7 10 12 12 10 12 9 9 11 12 8 13 35 40 36